AirNav   Everest Fuels
 
 393 users online  

90PN Miners Medical Center Heliport
Hastings, Pennsylvania, USA

GOING TO HASTINGS?


FAA INFORMATION EFFECTIVE 21 MAY 2020

Location

FAA Identifier: 90PN
Lat/Long: 40-39-30.0000N 078-42-22.0000W
40-39.500000N 078-42.366667W
40.6583333,-78.7061111
(estimated)
Elevation: 1825 ft. / 556 m (estimated)
From city: 1 mile SE of HASTINGS, PA
Time zone: UTC -4 (UTC -5 during Standard Time)
Zip code: 16646

Heliport Operations

Heliport use: Private use. Permission required prior to landing
Activation date: 03/2012
Control tower: no
ARTCC: CLEVELAND CENTER
FSS: ALTOONA FLIGHT SERVICE STATION
Attendance: UNATNDD
Wind indicator: yes
Segmented circle: no

Heliport Communications

WX AWOS-3 at IDI (18 nm W): 126.625 (724-388-0204)

Nearby radio navigation aids

VOR radial/distance  VOR name  Freq  Var
RECr025/7.0REVLOC VOR/DME110.6009W
JSTr022/21.3JOHNSTOWN VOR/DME113.0006W
PSBr254/35.9PHILIPSBURG VORTAC115.5010W

 
NDB name  Hdg/Dist  Freq  Var  ID
STOYSTOWN026/35.720910WSYS ... -.-- ...

Heliport Services

Runway Information

Helipad H1

Dimensions: 60 x 60 ft. / 18 x 18 m
Surface: asphalt
Latitude: 40-39.500000N
Longitude: 078-42.366667W
Elevation: 1825.0 ft.
Traffic pattern: leftleft

Heliport Ownership and Management from official FAA records

Ownership: Privately-owned
Owner: MINERS MEDICAL CENTER
290 HAIDA AVENUE
HASTINGS, PA 16646
Phone 814-247-3100
Manager: JAMES HOMERSKI
290 HAIDA AVENUE
HASTINGS, PA 16646
Phone 814-247-3100

Additional Remarks

FOR CD CTC JOHNSTOWN APCH AT 814-532-5960, WHEN APCH CLSD CTC CLEVELAND ARTCC AT 440-774-0234.

Instrument Procedures

There are no published instrument procedures at 90PN.

Some nearby airports with instrument procedures:

9G8 - Ebensburg Airport (12 nm S)
KIDI - Indiana County Airport (Jimmy Stewart Field) (18 nm W)
N35 - Punxsutawney Municipal Airport (21 nm NW)
KJST - John Murtha Johnstown-Cambria County Airport (21 nm S)
KFIG - Clearfield-Lawrence Airport (27 nm NE)
 
Loc | Ops | Rwys | IFR | FBO | Links
Com | Nav | Svcs | Stats | Notes
Aerial photo
No photo
 
Airport distance calculator
Flying to Miners Medical Center Heliport? Find the distance to fly.

From to 90PN

Sunrise and sunset
Times for 06-Jun-2020
 Local
(UTC-4)
 Zulu
(UTC)
Morning civil twilight05:1209:12
Sunrise05:4509:45
Sunset20:4200:42
Evening civil twilight21:1501:15

Current date and time
Zulu (UTC)  06-Jun-2020 07:05:19
Local (UTC-4)  06-Jun-2020 03:05:19
 
METAR
KIDI 
17nm W 
060655Z AUTO 00000KT 2SM BR SCT003 SCT014 OVC048 18/18 A2994 RMK A01
KJST 
21nm S 
060654Z AUTO 26007KT 4SM BR CLR 19/17 A2993 RMK AO2 SLP120 T01890172
KFIG 
27nm NE 
060654Z AUTO 20004KT 1SM BR VV004 17/17 A2989 RMK AO2 SLP112 T01720167
KAOO 
28nm SE 
060653Z AUTO 22007KT 5SM BR CLR 18/17 A2990 RMK AO2 SLP114 T01780167
KDUJ 
32nm N 
060653Z AUTO 23006KT 1/2SM FG VV006 17/16 A2989 RMK AO2 SLP112 T01720161
TAF
KJST 
21nm S 
060529Z 0606/0706 24005KT 3SM BR BKN150 TEMPO 0608/0612 1SM BR BKN008 FM061300 27008KT P6SM BKN015 FM061500 30012G22KT P6SM SCT050 FM070000 32005KT P6SM SCT060
NOTAMs
Click for the latest NOTAMs
NOTAMs are issued by the DoD/FAA and will open in a separate window not controlled by AirNav.

 

 
 

Would you like to see your business listed on this page?

 If your business provides an interesting product or service to pilots, flight crews, aircraft, or users of the Miners Medical Center Heliport, you should consider listing it here.  To start the listing process, click on the button below
 
Add a business
 

Other Pages about Miners Medical Center Heliport

Update a link
 
Copyright © AirNav, LLC. All rights reserved. Privacy Policy  Contact